Year,Month,Day,Hour,Minute,Value (Times are PST for temperature in C)
2017,08,11,00,00,18.90
2017,08,11,00,01,18.80
2017,08,11,00,02,18.80
2017,08,11,00,03,18.80
2017,08,11,00,04,18.70
2017,08,11,00,05,18.70
2017,08,11,00,06,18.70
2017,08,11,00,07,18.70
2017,08,11,00,08,18.60
2017,08,11,00,09,18.60
2017,08,11,00,10,18.60
2017,08,11,00,11,18.50
2017,08,11,00,12,18.50
2017,08,11,00,13,18.50
2017,08,11,00,14,18.50
2017,08,11,00,15,18.40
2017,08,11,00,16,18.40
2017,08,11,00,17,18.40
2017,08,11,00,18,18.40
2017,08,11,00,19,18.30
2017,08,11,00,20,18.30
2017,08,11,00,21,18.30
2017,08,11,00,22,18.30
2017,08,11,00,23,18.30
2017,08,11,00,24,18.20
2017,08,11,00,25,18.20
2017,08,11,00,26,18.20
2017,08,11,00,27,18.20
2017,08,11,00,28,18.20
2017,08,11,00,29,18.20
2017,08,11,00,30,18.20
2017,08,11,00,31,18.20
2017,08,11,00,32,18.20
2017,08,11,00,33,18.20
2017,08,11,00,34,18.20
2017,08,11,00,35,18.20
2017,08,11,00,36,18.20
2017,08,11,00,37,18.20
2017,08,11,00,38,18.20
2017,08,11,00,39,18.20
2017,08,11,00,40,18.20
2017,08,11,00,41,18.20
2017,08,11,00,42,18.20
2017,08,11,00,43,18.20
2017,08,11,00,44,18.20
2017,08,11,00,45,18.10
2017,08,11,00,46,18.10
2017,08,11,00,47,18.10
2017,08,11,00,48,18.10
2017,08,11,00,49,18.10
2017,08,11,00,50,18.10
2017,08,11,00,51,18.00
2017,08,11,00,52,17.90
2017,08,11,00,53,17.90
2017,08,11,00,54,17.90
2017,08,11,00,55,17.90
2017,08,11,00,56,17.90
2017,08,11,00,57,17.90
2017,08,11,00,58,17.90
2017,08,11,00,59,17.90
2017,08,11,01,00,17.90
2017,08,11,01,01,17.80
2017,08,11,01,02,17.80
2017,08,11,01,03,17.80
2017,08,11,01,04,17.70
2017,08,11,01,05,17.70
2017,08,11,01,06,17.70
2017,08,11,01,07,17.70
2017,08,11,01,08,17.70
2017,08,11,01,09,17.60
2017,08,11,01,10,17.60
2017,08,11,01,11,17.60
2017,08,11,01,12,17.50
2017,08,11,01,13,17.50
2017,08,11,01,14,17.50
2017,08,11,01,15,17.50
2017,08,11,01,16,17.50
2017,08,11,01,17,17.40
2017,08,11,01,18,17.40
2017,08,11,01,19,17.40
2017,08,11,01,20,17.40
2017,08,11,01,21,17.40
2017,08,11,01,22,17.30
2017,08,11,01,23,17.30
2017,08,11,01,24,17.30
2017,08,11,01,25,17.30
2017,08,11,01,26,17.30
2017,08,11,01,27,17.30
2017,08,11,01,28,17.30
2017,08,11,01,29,17.30
2017,08,11,01,30,17.20
2017,08,11,01,31,17.20
2017,08,11,01,32,17.20
2017,08,11,01,33,17.20
2017,08,11,01,34,17.10
2017,08,11,01,35,17.10
2017,08,11,01,36,17.10
2017,08,11,01,37,17.10
2017,08,11,01,38,17.10
2017,08,11,01,39,17.00
2017,08,11,01,40,17.00
2017,08,11,01,41,17.00
2017,08,11,01,42,17.00
2017,08,11,01,43,17.00
2017,08,11,01,44,17.00
2017,08,11,01,45,17.00
2017,08,11,01,46,16.90
2017,08,11,01,47,16.90
2017,08,11,01,48,16.90
2017,08,11,01,49,16.90
2017,08,11,01,50,16.90
2017,08,11,01,51,16.80
2017,08,11,01,52,16.80
2017,08,11,01,53,16.80
2017,08,11,01,54,16.80
2017,08,11,01,55,16.70
2017,08,11,01,56,16.70
2017,08,11,01,57,16.70
2017,08,11,01,58,16.70
2017,08,11,01,59,16.70
2017,08,11,02,00,16.70
2017,08,11,02,01,16.70
2017,08,11,02,02,16.70
2017,08,11,02,03,16.70
2017,08,11,02,04,16.70
2017,08,11,02,05,16.60
2017,08,11,02,06,16.60
2017,08,11,02,07,16.60
2017,08,11,02,08,16.60
2017,08,11,02,09,16.60
2017,08,11,02,10,16.50
2017,08,11,02,11,16.40
2017,08,11,02,12,16.40
2017,08,11,02,13,16.40
2017,08,11,02,14,16.40
2017,08,11,02,15,16.40
2017,08,11,02,16,16.40
2017,08,11,02,17,16.40
2017,08,11,02,18,16.40
2017,08,11,02,19,16.40
2017,08,11,02,20,16.40
2017,08,11,02,21,16.30
2017,08,11,02,22,16.30
2017,08,11,02,23,16.30
2017,08,11,02,24,16.30
2017,08,11,02,25,16.30
2017,08,11,02,26,16.30
2017,08,11,02,27,16.30
2017,08,11,02,28,16.30
2017,08,11,02,29,16.30
2017,08,11,02,30,16.30
2017,08,11,02,31,16.30
2017,08,11,02,32,16.30
2017,08,11,02,33,16.30
2017,08,11,02,34,16.30
2017,08,11,02,35,16.30
2017,08,11,02,36,16.20
2017,08,11,02,37,16.20
2017,08,11,02,38,16.20
2017,08,11,02,39,16.20
2017,08,11,02,40,16.20
2017,08,11,02,41,16.10
2017,08,11,02,42,16.10
2017,08,11,02,43,16.10
2017,08,11,02,44,16.00
2017,08,11,02,45,15.90
2017,08,11,02,46,15.90
2017,08,11,02,47,15.80
2017,08,11,02,48,15.80
2017,08,11,02,49,15.70
2017,08,11,02,50,15.70
2017,08,11,02,51,15.60
2017,08,11,02,52,15.60
2017,08,11,02,53,15.50
2017,08,11,02,54,15.50
2017,08,11,02,55,15.50
2017,08,11,02,56,15.40
2017,08,11,02,57,15.40
2017,08,11,02,58,15.40
2017,08,11,02,59,15.30
2017,08,11,03,00,15.30
2017,08,11,03,01,15.30
2017,08,11,03,02,15.30
2017,08,11,03,03,15.30
2017,08,11,03,04,15.30
2017,08,11,03,05,15.30
2017,08,11,03,06,15.30
2017,08,11,03,07,15.20
2017,08,11,03,08,15.20
2017,08,11,03,09,15.20
2017,08,11,03,10,15.20
2017,08,11,03,11,15.20
2017,08,11,03,12,15.20
2017,08,11,03,13,15.10
2017,08,11,03,14,15.10
2017,08,11,03,15,15.10
2017,08,11,03,16,15.10
2017,08,11,03,17,15.10
2017,08,11,03,18,15.00
2017,08,11,03,19,15.00
2017,08,11,03,20,15.00
2017,08,11,03,21,15.00
2017,08,11,03,22,15.00
2017,08,11,03,23,15.00
2017,08,11,03,24,15.00
2017,08,11,03,25,15.00
2017,08,11,03,26,15.00
2017,08,11,03,27,15.00
2017,08,11,03,28,15.00
2017,08,11,03,29,14.90
2017,08,11,03,30,14.90
2017,08,11,03,31,14.90
2017,08,11,03,32,14.90
2017,08,11,03,33,14.90
2017,08,11,03,34,14.90
2017,08,11,03,35,14.80
2017,08,11,03,36,14.80
2017,08,11,03,37,14.80
2017,08,11,03,38,14.80
2017,08,11,03,39,14.80
2017,08,11,03,40,14.80
2017,08,11,03,41,14.80
2017,08,11,03,42,14.80
2017,08,11,03,43,14.80
2017,08,11,03,44,14.80
2017,08,11,03,45,14.70
2017,08,11,03,46,14.70
2017,08,11,03,47,14.70
2017,08,11,03,48,14.70
2017,08,11,03,49,14.60
2017,08,11,03,50,14.60
2017,08,11,03,51,14.60
2017,08,11,03,52,14.60
2017,08,11,03,53,14.60
2017,08,11,03,54,14.50
2017,08,11,03,55,14.50
2017,08,11,03,56,14.50
2017,08,11,03,57,14.40
2017,08,11,03,58,14.40
2017,08,11,03,59,14.40
2017,08,11,04,00,14.40
2017,08,11,04,01,14.40
2017,08,11,04,02,14.40
2017,08,11,04,03,14.30
2017,08,11,04,04,14.30
2017,08,11,04,05,14.30
2017,08,11,04,06,14.30
2017,08,11,04,07,14.30
2017,08,11,04,08,14.30
2017,08,11,04,09,14.30
2017,08,11,04,10,14.30
2017,08,11,04,11,14.30
2017,08,11,04,12,14.20
2017,08,11,04,13,14.20
2017,08,11,04,14,14.20
2017,08,11,04,15,14.20
2017,08,11,04,16,14.20
2017,08,11,04,17,14.20
2017,08,11,04,18,14.20
2017,08,11,04,19,14.20
2017,08,11,04,20,14.20
2017,08,11,04,21,14.20
2017,08,11,04,22,14.20
2017,08,11,04,23,14.20
2017,08,11,04,24,14.20
2017,08,11,04,25,14.20
2017,08,11,04,26,14.20
2017,08,11,04,27,14.20
2017,08,11,04,28,14.20
2017,08,11,04,29,14.20
2017,08,11,04,30,14.20
2017,08,11,04,31,14.20
2017,08,11,04,32,14.20
2017,08,11,04,33,14.20
2017,08,11,04,34,14.20
2017,08,11,04,35,14.20
2017,08,11,04,36,14.20
2017,08,11,04,37,14.20
2017,08,11,04,38,14.20
2017,08,11,04,39,14.20
2017,08,11,04,40,14.20
2017,08,11,04,41,14.20
2017,08,11,04,42,14.20
2017,08,11,04,43,14.20
2017,08,11,04,44,14.20
2017,08,11,04,45,14.20
2017,08,11,04,46,14.20
2017,08,11,04,47,14.20
2017,08,11,04,48,14.20
2017,08,11,04,49,14.20
2017,08,11,04,50,14.20
2017,08,11,04,51,14.20
2017,08,11,04,52,14.20
2017,08,11,04,53,14.20
2017,08,11,04,54,14.20
2017,08,11,04,55,14.20
2017,08,11,04,56,14.20
2017,08,11,04,57,14.20
2017,08,11,04,58,14.20
2017,08,11,04,59,14.20
2017,08,11,05,00,14.20
2017,08,11,05,01,14.20
2017,08,11,05,02,14.20
2017,08,11,05,03,14.20
2017,08,11,05,04,14.20
2017,08,11,05,05,14.20
2017,08,11,05,06,14.20
2017,08,11,05,07,14.20
2017,08,11,05,08,14.20
2017,08,11,05,09,14.20
2017,08,11,05,10,14.20
2017,08,11,05,11,14.20
2017,08,11,05,12,14.20
2017,08,11,05,13,14.10
2017,08,11,05,14,14.10
2017,08,11,05,15,14.10
2017,08,11,05,16,14.10
2017,08,11,05,17,14.10
2017,08,11,05,18,14.10
2017,08,11,05,19,14.10
2017,08,11,05,20,14.10
2017,08,11,05,21,14.10
2017,08,11,05,22,14.10
2017,08,11,05,23,14.00
2017,08,11,05,24,14.00
2017,08,11,05,25,14.00
2017,08,11,05,26,14.00
2017,08,11,05,27,14.00
2017,08,11,05,28,14.00
2017,08,11,05,29,14.00
2017,08,11,05,30,14.00
2017,08,11,05,31,14.00
2017,08,11,05,32,14.00
2017,08,11,05,33,14.00
2017,08,11,05,34,14.00
2017,08,11,05,35,14.00
2017,08,11,05,36,14.00
2017,08,11,05,37,14.00
2017,08,11,05,38,14.00
2017,08,11,05,39,14.00
2017,08,11,05,40,14.00
2017,08,11,05,41,14.00
2017,08,11,05,42,14.00
2017,08,11,05,43,14.00
2017,08,11,05,44,14.00
2017,08,11,05,45,14.00
2017,08,11,05,46,14.00
2017,08,11,05,47,14.00
2017,08,11,05,48,14.00
2017,08,11,05,49,14.00
2017,08,11,05,50,14.00
2017,08,11,05,51,13.90
2017,08,11,05,52,13.90
2017,08,11,05,53,13.90
2017,08,11,05,54,13.90
2017,08,11,05,55,13.90
2017,08,11,05,56,13.90
2017,08,11,05,57,13.90
2017,08,11,05,58,13.90
2017,08,11,05,59,13.90
2017,08,11,06,00,13.90
2017,08,11,06,01,13.90
2017,08,11,06,02,13.90
2017,08,11,06,03,13.90
2017,08,11,06,04,13.80
2017,08,11,06,05,13.90
2017,08,11,06,06,13.80
2017,08,11,06,07,13.80
2017,08,11,06,08,13.90
2017,08,11,06,09,13.90
2017,08,11,06,10,13.90
2017,08,11,06,11,13.90
2017,08,11,06,12,13.90
2017,08,11,06,13,13.90
2017,08,11,06,14,13.90
2017,08,11,06,15,13.90
2017,08,11,06,16,13.90
2017,08,11,06,17,13.90
2017,08,11,06,18,13.90
2017,08,11,06,19,13.90
2017,08,11,06,20,13.90
2017,08,11,06,21,13.90
2017,08,11,06,22,13.90
2017,08,11,06,23,13.90
2017,08,11,06,24,13.90
2017,08,11,06,25,13.80
2017,08,11,06,26,13.80
2017,08,11,06,27,13.80
2017,08,11,06,28,13.80
2017,08,11,06,29,13.80
2017,08,11,06,30,13.80
2017,08,11,06,31,13.80
2017,08,11,06,32,13.80
2017,08,11,06,33,13.80
2017,08,11,06,34,13.80
2017,08,11,06,35,13.80
2017,08,11,06,36,13.80
2017,08,11,06,37,13.80
2017,08,11,06,38,13.80
2017,08,11,06,39,13.80
2017,08,11,06,40,13.80
2017,08,11,06,41,13.80
2017,08,11,06,42,13.80
2017,08,11,06,43,13.90
2017,08,11,06,44,13.90
2017,08,11,06,45,13.90
2017,08,11,06,46,13.90
2017,08,11,06,47,13.90
2017,08,11,06,48,13.90
2017,08,11,06,49,13.90
2017,08,11,06,50,13.90
2017,08,11,06,51,13.90
2017,08,11,06,52,13.90
2017,08,11,06,53,13.90
2017,08,11,06,54,13.90
2017,08,11,06,55,14.00
2017,08,11,06,56,14.00
2017,08,11,06,57,14.00
2017,08,11,06,58,14.00
2017,08,11,06,59,14.10
2017,08,11,07,00,14.10
2017,08,11,07,01,14.10
2017,08,11,07,02,14.20
2017,08,11,07,03,14.20
2017,08,11,07,04,14.20
2017,08,11,07,05,14.20
2017,08,11,07,06,14.30
2017,08,11,07,07,14.40
2017,08,11,07,08,14.40
2017,08,11,07,09,14.50
2017,08,11,07,10,14.50
2017,08,11,07,11,14.60
2017,08,11,07,12,14.60
2017,08,11,07,13,14.70
2017,08,11,07,14,14.70
2017,08,11,07,15,14.70
2017,08,11,07,16,14.80
2017,08,11,07,17,14.80
2017,08,11,07,18,14.80
2017,08,11,07,19,14.90
2017,08,11,07,20,15.00
2017,08,11,07,21,15.00
2017,08,11,07,22,15.10
2017,08,11,07,23,15.10
2017,08,11,07,24,15.20
2017,08,11,07,25,15.30
2017,08,11,07,26,15.30
2017,08,11,07,27,15.40
2017,08,11,07,28,15.50
2017,08,11,07,29,15.50
2017,08,11,07,30,15.60
2017,08,11,07,31,15.70
2017,08,11,07,32,15.80
2017,08,11,07,33,15.80
2017,08,11,07,34,15.80
2017,08,11,07,35,15.90
2017,08,11,07,36,16.00
2017,08,11,07,37,16.10
2017,08,11,07,38,16.10
2017,08,11,07,39,16.20
2017,08,11,07,40,16.30
2017,08,11,07,41,16.40
2017,08,11,07,42,16.40
2017,08,11,07,43,16.50
2017,08,11,07,44,16.60
2017,08,11,07,45,16.70
2017,08,11,07,46,16.70
2017,08,11,07,47,16.80
2017,08,11,07,48,16.90
2017,08,11,07,49,16.90
2017,08,11,07,50,17.00
2017,08,11,07,51,17.10
2017,08,11,07,52,17.10
2017,08,11,07,53,17.20
2017,08,11,07,54,17.20
2017,08,11,07,55,17.30
2017,08,11,07,56,17.30
2017,08,11,07,57,17.30
2017,08,11,07,58,17.40
2017,08,11,07,59,17.40
2017,08,11,08,00,17.40
2017,08,11,08,01,17.50
2017,08,11,08,02,17.50
2017,08,11,08,03,17.60
2017,08,11,08,04,17.60
2017,08,11,08,05,17.70
2017,08,11,08,06,17.80
2017,08,11,08,07,17.80
2017,08,11,08,08,17.90
2017,08,11,08,09,17.90
2017,08,11,08,10,17.90
2017,08,11,08,11,18.00
2017,08,11,08,12,18.10
2017,08,11,08,13,18.10
2017,08,11,08,14,18.20
2017,08,11,08,15,18.20
2017,08,11,08,16,18.30
2017,08,11,08,17,18.40
2017,08,11,08,18,18.40
2017,08,11,08,19,18.50
2017,08,11,08,20,18.60
2017,08,11,08,21,18.70
2017,08,11,08,22,18.80
2017,08,11,08,23,18.90
2017,08,11,08,24,18.90
2017,08,11,08,25,19.00
2017,08,11,08,26,19.10
2017,08,11,08,27,19.10
2017,08,11,08,28,19.10
2017,08,11,08,29,19.20
2017,08,11,08,30,19.20
2017,08,11,08,31,19.30
2017,08,11,08,32,19.30
2017,08,11,08,33,19.40
2017,08,11,08,34,19.40
2017,08,11,08,35,19.50
2017,08,11,08,36,19.50
2017,08,11,08,37,19.50
2017,08,11,08,38,19.50
2017,08,11,08,39,19.50
2017,08,11,08,40,19.40
2017,08,11,08,41,19.40
2017,08,11,08,42,19.30
2017,08,11,08,43,19.10
2017,08,11,08,44,19.10
2017,08,11,08,45,19.10
2017,08,11,08,46,19.00
2017,08,11,08,47,18.90
2017,08,11,08,48,18.90
2017,08,11,08,49,18.90
2017,08,11,08,50,18.90
2017,08,11,08,51,18.90
2017,08,11,08,52,18.90
2017,08,11,08,53,18.90
2017,08,11,08,54,18.90
2017,08,11,08,55,18.90
2017,08,11,08,56,18.90
2017,08,11,08,57,18.90
2017,08,11,08,58,19.00
2017,08,11,08,59,19.10
2017,08,11,09,00,19.20
2017,08,11,09,01,19.30
2017,08,11,09,02,19.30
2017,08,11,09,03,19.40
2017,08,11,09,04,19.50
2017,08,11,09,05,19.50
2017,08,11,09,06,19.60
2017,08,11,09,07,19.60
2017,08,11,09,08,19.70
2017,08,11,09,09,19.80
2017,08,11,09,10,19.90
2017,08,11,09,11,19.90
2017,08,11,09,12,19.90
2017,08,11,09,13,19.90
2017,08,11,09,14,20.00
2017,08,11,09,15,20.10
2017,08,11,09,16,20.00
2017,08,11,09,17,19.90
2017,08,11,09,18,19.90
2017,08,11,09,19,19.80
2017,08,11,09,20,19.80
2017,08,11,09,21,19.80
2017,08,11,09,22,19.80
2017,08,11,09,23,19.80
2017,08,11,09,24,19.80
2017,08,11,09,25,19.80
2017,08,11,09,26,19.90
2017,08,11,09,27,19.90
2017,08,11,09,28,19.90
2017,08,11,09,29,20.00
2017,08,11,09,30,20.10
2017,08,11,09,31,20.20
2017,08,11,09,32,20.20
2017,08,11,09,33,20.20
2017,08,11,09,34,20.20
2017,08,11,09,35,20.20
2017,08,11,09,36,20.20
2017,08,11,09,37,20.20
2017,08,11,09,38,20.20
2017,08,11,09,39,20.20
2017,08,11,09,40,20.20
2017,08,11,09,41,20.20
2017,08,11,09,42,20.30
2017,08,11,09,43,20.20
2017,08,11,09,44,20.20
2017,08,11,09,45,20.20
2017,08,11,09,46,20.20
2017,08,11,09,47,20.00
2017,08,11,09,48,19.90
2017,08,11,09,49,19.80
2017,08,11,09,50,19.70
2017,08,11,09,51,19.60
2017,08,11,09,52,19.60
2017,08,11,09,53,19.50
2017,08,11,09,54,19.50
2017,08,11,09,55,19.50
2017,08,11,09,56,19.50
2017,08,11,09,57,19.60
2017,08,11,09,58,19.60
2017,08,11,09,59,19.70
2017,08,11,10,00,19.70
2017,08,11,10,01,19.80
2017,08,11,10,02,19.80
2017,08,11,10,03,19.80
2017,08,11,10,04,19.80
2017,08,11,10,05,19.80
2017,08,11,10,06,19.90
2017,08,11,10,07,19.80
2017,08,11,10,08,19.80
2017,08,11,10,09,19.70
2017,08,11,10,10,19.70
2017,08,11,10,11,19.70
2017,08,11,10,12,19.80
2017,08,11,10,13,19.80
2017,08,11,10,14,19.90
2017,08,11,10,15,19.90
2017,08,11,10,16,19.90
2017,08,11,10,17,20.00
2017,08,11,10,18,20.10
2017,08,11,10,19,20.10
2017,08,11,10,20,20.20
2017,08,11,10,21,20.30
2017,08,11,10,22,20.40
2017,08,11,10,23,20.40
2017,08,11,10,24,20.50
2017,08,11,10,25,20.60
2017,08,11,10,26,20.60
2017,08,11,10,27,20.60
2017,08,11,10,28,20.60
2017,08,11,10,29,20.50
2017,08,11,10,30,20.50
2017,08,11,10,31,20.30
2017,08,11,10,32,20.20
2017,08,11,10,33,20.10
2017,08,11,10,34,19.90
2017,08,11,10,35,19.90
2017,08,11,10,36,19.90
2017,08,11,10,37,19.90
2017,08,11,10,38,19.90
2017,08,11,10,39,19.90
2017,08,11,10,40,19.90
2017,08,11,10,41,20.00
2017,08,11,10,42,20.20
2017,08,11,10,43,20.20
2017,08,11,10,44,20.30
2017,08,11,10,45,20.40
2017,08,11,10,46,20.50
2017,08,11,10,47,20.60
2017,08,11,10,48,20.60
2017,08,11,10,49,20.50
2017,08,11,10,50,20.60
2017,08,11,10,51,20.60
2017,08,11,10,52,20.60
2017,08,11,10,53,20.60
2017,08,11,10,54,20.60
2017,08,11,10,55,20.60
2017,08,11,10,56,20.60
2017,08,11,10,57,20.50
2017,08,11,10,58,20.60
2017,08,11,10,59,20.70
2017,08,11,11,00,20.80
2017,08,11,11,01,20.90
2017,08,11,11,02,21.00
2017,08,11,11,03,21.10
2017,08,11,11,04,21.30
2017,08,11,11,05,21.30
2017,08,11,11,06,21.50
2017,08,11,11,07,21.60
2017,08,11,11,08,21.60
2017,08,11,11,09,21.70
2017,08,11,11,10,21.80
2017,08,11,11,11,21.90
2017,08,11,11,12,22.00
2017,08,11,11,13,22.20
2017,08,11,11,14,22.30
2017,08,11,11,15,22.30
2017,08,11,11,16,22.30
2017,08,11,11,17,22.30
2017,08,11,11,18,22.30
2017,08,11,11,19,22.40
2017,08,11,11,20,22.50
2017,08,11,11,21,22.60
2017,08,11,11,22,22.60
2017,08,11,11,23,22.60
2017,08,11,11,24,22.60
2017,08,11,11,25,22.60
2017,08,11,11,26,22.60
2017,08,11,11,27,22.50
2017,08,11,11,28,22.50
2017,08,11,11,29,22.50
2017,08,11,11,30,22.50
2017,08,11,11,31,22.50
2017,08,11,11,32,22.50
2017,08,11,11,33,22.30
2017,08,11,11,34,22.20
2017,08,11,11,35,22.00
2017,08,11,11,36,22.00
2017,08,11,11,37,21.90
2017,08,11,11,38,21.90
2017,08,11,11,39,21.90
2017,08,11,11,40,21.90
2017,08,11,11,41,21.90
2017,08,11,11,42,21.90
2017,08,11,11,43,21.90
2017,08,11,11,44,21.90
2017,08,11,11,45,22.00
2017,08,11,11,46,22.00
2017,08,11,11,47,22.10
2017,08,11,11,48,22.30
2017,08,11,11,49,22.50
2017,08,11,11,50,22.70
2017,08,11,11,51,22.90
2017,08,11,11,52,23.10
2017,08,11,11,53,23.20
2017,08,11,11,54,23.30
2017,08,11,11,55,23.30
2017,08,11,11,56,23.30
2017,08,11,11,57,23.30
2017,08,11,11,58,23.30
2017,08,11,11,59,23.10
2017,08,11,12,00,22.90
2017,08,11,12,01,22.70
2017,08,11,12,02,22.60
2017,08,11,12,03,22.50
2017,08,11,12,04,22.30
2017,08,11,12,05,22.20
2017,08,11,12,06,22.10
2017,08,11,12,07,22.10
2017,08,11,12,08,22.20
2017,08,11,12,09,22.30
2017,08,11,12,10,22.30
2017,08,11,12,11,22.50
2017,08,11,12,12,22.60
2017,08,11,12,13,22.80
2017,08,11,12,14,22.90
2017,08,11,12,15,22.90
2017,08,11,12,16,22.90
2017,08,11,12,17,22.90
2017,08,11,12,18,23.10
2017,08,11,12,19,23.20
2017,08,11,12,20,23.30
2017,08,11,12,21,23.30
2017,08,11,12,22,23.30
2017,08,11,12,23,23.30
2017,08,11,12,24,23.30
2017,08,11,12,25,23.30
2017,08,11,12,26,23.30
2017,08,11,12,27,23.30
2017,08,11,12,28,23.40
2017,08,11,12,29,23.50
2017,08,11,12,30,23.60
2017,08,11,12,31,23.70
2017,08,11,12,32,23.90
2017,08,11,12,33,24.00
2017,08,11,12,34,24.10
2017,08,11,12,35,24.10
2017,08,11,12,36,24.20
2017,08,11,12,37,24.20
2017,08,11,12,38,24.20
2017,08,11,12,39,24.30
2017,08,11,12,40,24.30
2017,08,11,12,41,24.20
2017,08,11,12,42,24.20
2017,08,11,12,43,24.20
2017,08,11,12,44,24.20
2017,08,11,12,45,24.20
2017,08,11,12,46,24.30
2017,08,11,12,47,24.50
2017,08,11,12,48,24.50
2017,08,11,12,49,24.70
2017,08,11,12,50,24.90
2017,08,11,12,51,25.20
2017,08,11,12,52,25.40
2017,08,11,12,53,25.50
2017,08,11,12,54,25.60
2017,08,11,12,55,25.80
2017,08,11,12,56,25.90
2017,08,11,12,57,26.00
2017,08,11,12,58,26.10
2017,08,11,12,59,26.10
2017,08,11,13,00,26.00
2017,08,11,13,01,26.00
2017,08,11,13,02,26.00
2017,08,11,13,03,26.00
2017,08,11,13,04,26.00
2017,08,11,13,05,26.00
2017,08,11,13,06,26.10
2017,08,11,13,07,26.10
2017,08,11,13,08,26.10
2017,08,11,13,09,26.00
2017,08,11,13,10,26.00
2017,08,11,13,11,25.90
2017,08,11,13,12,26.00
2017,08,11,13,13,26.00
2017,08,11,13,14,26.20
2017,08,11,13,15,26.30
2017,08,11,13,16,26.40
2017,08,11,13,17,26.50
2017,08,11,13,18,26.60
2017,08,11,13,19,26.70
2017,08,11,13,20,26.80
2017,08,11,13,21,26.80
2017,08,11,13,22,26.90
2017,08,11,13,23,27.10
2017,08,11,13,24,27.10
2017,08,11,13,25,27.10
2017,08,11,13,26,26.90
2017,08,11,13,27,26.80
2017,08,11,13,28,26.70
2017,08,11,13,29,26.60
2017,08,11,13,30,26.60
2017,08,11,13,31,26.60
2017,08,11,13,32,26.60
2017,08,11,13,33,26.70
2017,08,11,13,34,26.70
2017,08,11,13,35,26.70
2017,08,11,13,36,26.90
2017,08,11,13,37,26.90
2017,08,11,13,38,27.00
2017,08,11,13,39,27.10
2017,08,11,13,40,27.20
2017,08,11,13,41,27.30
2017,08,11,13,42,27.40
2017,08,11,13,43,27.50
2017,08,11,13,44,27.60
2017,08,11,13,45,27.60
2017,08,11,13,46,27.60
2017,08,11,13,47,27.60
2017,08,11,13,48,27.60
2017,08,11,13,49,27.60
2017,08,11,13,50,27.60
2017,08,11,13,51,27.60
2017,08,11,13,52,27.60
2017,08,11,13,53,27.70
2017,08,11,13,54,27.80
2017,08,11,13,55,27.90
2017,08,11,13,56,27.70
2017,08,11,13,57,27.60
2017,08,11,13,58,27.40
2017,08,11,13,59,27.30
2017,08,11,14,00,27.30
2017,08,11,14,01,27.30
2017,08,11,14,02,27.30
2017,08,11,14,03,27.10
2017,08,11,14,04,27.20
2017,08,11,14,05,27.20
2017,08,11,14,06,27.30
2017,08,11,14,07,27.30
2017,08,11,14,08,27.30
2017,08,11,14,09,27.30
2017,08,11,14,10,27.40
2017,08,11,14,11,27.60
2017,08,11,14,12,27.60
2017,08,11,14,13,27.60
2017,08,11,14,14,27.60
2017,08,11,14,15,27.60
2017,08,11,14,16,27.60
2017,08,11,14,17,27.70
2017,08,11,14,18,27.70
2017,08,11,14,19,27.90
2017,08,11,14,20,27.90
2017,08,11,14,21,28.00
2017,08,11,14,22,28.00
2017,08,11,14,23,28.10
2017,08,11,14,24,28.20
2017,08,11,14,25,28.30
2017,08,11,14,26,28.30
2017,08,11,14,27,28.40
2017,08,11,14,28,28.30
2017,08,11,14,29,28.40
2017,08,11,14,30,28.40
2017,08,11,14,31,28.50
2017,08,11,14,32,28.60
2017,08,11,14,33,28.60
2017,08,11,14,34,28.60
2017,08,11,14,35,28.60
2017,08,11,14,36,28.70
2017,08,11,14,37,28.70
2017,08,11,14,38,28.70
2017,08,11,14,39,28.70
2017,08,11,14,40,28.80
2017,08,11,14,41,28.60
2017,08,11,14,42,28.50
2017,08,11,14,43,28.40
2017,08,11,14,44,28.30
2017,08,11,14,45,28.20
2017,08,11,14,46,28.20
2017,08,11,14,47,28.20
2017,08,11,14,48,28.20
2017,08,11,14,49,28.20
2017,08,11,14,50,28.30
2017,08,11,14,51,28.30
2017,08,11,14,52,28.40
2017,08,11,14,53,28.40
2017,08,11,14,54,28.50
2017,08,11,14,55,28.60
2017,08,11,14,56,28.60
2017,08,11,14,57,28.60
2017,08,11,14,58,28.70
2017,08,11,14,59,28.70
2017,08,11,15,00,28.60
2017,08,11,15,01,28.60
2017,08,11,15,02,28.60
2017,08,11,15,03,28.60
2017,08,11,15,04,28.60
2017,08,11,15,05,28.70
2017,08,11,15,06,28.70
2017,08,11,15,07,28.70
2017,08,11,15,08,28.70
2017,08,11,15,09,28.80
2017,08,11,15,10,28.80
2017,08,11,15,11,28.90
2017,08,11,15,12,28.90
2017,08,11,15,13,29.00
2017,08,11,15,14,29.00
2017,08,11,15,15,29.10
2017,08,11,15,16,29.10
2017,08,11,15,17,29.10
2017,08,11,15,18,29.00
2017,08,11,15,19,28.90
2017,08,11,15,20,28.90
2017,08,11,15,21,28.90
2017,08,11,15,22,28.90
2017,08,11,15,23,28.90
2017,08,11,15,24,28.90
2017,08,11,15,25,28.90
2017,08,11,15,26,28.90
2017,08,11,15,27,28.80
2017,08,11,15,28,28.80
2017,08,11,15,29,28.70
2017,08,11,15,30,28.60
2017,08,11,15,31,28.50
2017,08,11,15,32,28.40
2017,08,11,15,33,28.30
2017,08,11,15,34,28.20
2017,08,11,15,35,28.10
2017,08,11,15,36,28.10
2017,08,11,15,37,28.10
2017,08,11,15,38,28.10
2017,08,11,15,39,28.10
2017,08,11,15,40,28.10
2017,08,11,15,41,28.10
2017,08,11,15,42,28.10
2017,08,11,15,43,28.10
2017,08,11,15,44,28.10
2017,08,11,15,45,28.20
2017,08,11,15,46,28.20
2017,08,11,15,47,28.30
2017,08,11,15,48,28.40
2017,08,11,15,49,28.40
2017,08,11,15,50,28.30
2017,08,11,15,51,28.30
2017,08,11,15,52,28.30
2017,08,11,15,53,28.30
2017,08,11,15,54,28.40
2017,08,11,15,55,28.40
2017,08,11,15,56,28.40
2017,08,11,15,57,28.40
2017,08,11,15,58,28.40
2017,08,11,15,59,28.50
2017,08,11,16,00,28.60
2017,08,11,16,01,28.60
2017,08,11,16,02,28.60
2017,08,11,16,03,28.70
2017,08,11,16,04,28.60
2017,08,11,16,05,28.60
2017,08,11,16,06,28.50
2017,08,11,16,07,28.40
2017,08,11,16,08,28.40
2017,08,11,16,09,28.40
2017,08,11,16,10,28.40
2017,08,11,16,11,28.30
2017,08,11,16,12,28.30
2017,08,11,16,13,28.30
2017,08,11,16,14,28.30
2017,08,11,16,15,28.20
2017,08,11,16,16,28.20
2017,08,11,16,17,28.20
2017,08,11,16,18,28.10
2017,08,11,16,19,28.00
2017,08,11,16,20,27.90
2017,08,11,16,21,27.90
2017,08,11,16,22,27.70
2017,08,11,16,23,27.70
2017,08,11,16,24,27.70
2017,08,11,16,25,27.60
2017,08,11,16,26,27.60
2017,08,11,16,27,27.50
2017,08,11,16,28,27.40
2017,08,11,16,29,27.30
2017,08,11,16,30,27.30
2017,08,11,16,31,27.30
2017,08,11,16,32,27.30
2017,08,11,16,33,27.20
2017,08,11,16,34,27.20
2017,08,11,16,35,27.20
2017,08,11,16,36,27.30
2017,08,11,16,37,27.30
2017,08,11,16,38,27.30
2017,08,11,16,39,27.30
2017,08,11,16,40,27.30
2017,08,11,16,41,27.30
2017,08,11,16,42,27.30
2017,08,11,16,43,27.30
2017,08,11,16,44,27.30
2017,08,11,16,45,27.30
2017,08,11,16,46,27.30
2017,08,11,16,47,27.30
2017,08,11,16,48,27.30
2017,08,11,16,49,27.30
2017,08,11,16,50,27.40
2017,08,11,16,51,27.40
2017,08,11,16,52,27.40
2017,08,11,16,53,27.40
2017,08,11,16,54,27.40
2017,08,11,16,55,27.40
2017,08,11,16,56,27.30
2017,08,11,16,57,27.30
2017,08,11,16,58,27.20
2017,08,11,16,59,27.10
2017,08,11,17,00,27.00
2017,08,11,17,01,26.80
2017,08,11,17,02,26.70
2017,08,11,17,03,26.60
2017,08,11,17,04,26.50
2017,08,11,17,05,26.30
2017,08,11,17,06,26.00
2017,08,11,17,07,25.80
2017,08,11,17,08,25.50
2017,08,11,17,09,25.30
2017,08,11,17,10,24.90
2017,08,11,17,11,24.70
2017,08,11,17,12,24.40
2017,08,11,17,13,24.10
2017,08,11,17,14,23.90
2017,08,11,17,15,23.70
2017,08,11,17,16,23.50
2017,08,11,17,17,23.30
2017,08,11,17,18,23.10
2017,08,11,17,19,23.00